When you browse on this site, cookies collect data to enhance your experience and personalize the content and advertising you see.
Visit our Privacy Policy to learn more. By continuing to use the site, you agree to this use of cookies and data.
  • In Österreich
  • Länderverzeichnis
  • Für 7 Tage
  • Wassertemperatur
  • Wetterkarte
  • News
  • Widgets
  • user-avatar
    Anmelden

    Stündliche Wetter Gryada

    Heute, 3 Juni, Mittwoch

    Zeit Temperatur Niederschläge Wind Luftdruck Luftfeuchtigkeit
    00:00 +7°C° 0 mm 3 m/S 741 mmHg 96%
    01:00 +7°C° 0 mm 3 m/S 741 mmHg 97%
    02:00 +7°C° 0 mm 3 m/S 742 mmHg 99%
    03:00 +7°C° 0 mm 3 m/S 741 mmHg 98%
    04:00 +7°C° 0 mm 3 m/S 741 mmHg 97%
    05:00 +6°C° 0 mm 4 m/S 741 mmHg 97%
    06:00 +7°C° 0.1 mm 3 m/S 741 mmHg 96%
    07:00 +8°C° 0.1 mm 3 m/S 741 mmHg 94%
    08:00 +9°C° 0 mm 3 m/S 741 mmHg 94%
    09:00 +9°C° 0.5 mm 3 m/S 741 mmHg 91%
    10:00 +10°C° 0.5 mm 4 m/S 741 mmHg 89%
    11:00 +11°C° 0.5 mm 4 m/S 741 mmHg 86%
    12:00 +12°C° 0.4 mm 4 m/S 741 mmHg 82%
    13:00 +13°C° 0.4 mm 3 m/S 741 mmHg 78%
    14:00 +14°C° 0.4 mm 3 m/S 741 mmHg 74%
    15:00 +14°C° 0.5 mm 3 m/S 741 mmHg 76%
    16:00 +14°C° 0.5 mm 3 m/S 740 mmHg 77%
    17:00 +14°C° 0.5 mm 3 m/S 740 mmHg 78%
    18:00 +12°C° 0.3 mm 3 m/S 740 mmHg 82%
    19:00 +12°C° 0.3 mm 2 m/S 740 mmHg 87%
    20:00 +10°C° 0.3 mm 2 m/S 740 mmHg 91%
    21:00 +9°C° 0 mm 2 m/S 740 mmHg 93%
    22:00 +8°C° 0 mm 2 m/S 740 mmHg 94%
    23:00 +7°C° 0 mm 2 m/S 740 mmHg 96%

    Morgen, 4 Juni, Donnerstag

    Zeit Temperatur Niederschläge Wind Luftdruck Luftfeuchtigkeit
    00:00 +7°C° 0 mm 2 m/S 740 mmHg 96%
    01:00 +6°C° 0 mm 2 m/S 740 mmHg 97%
    02:00 +6°C° 0 mm 2 m/S 740 mmHg 97%
    03:00 +6°C° 0 mm 2 m/S 740 mmHg 97%
    04:00 +6°C° 0 mm 2 m/S 740 mmHg 98%
    05:00 +6°C° 0 mm 2 m/S 740 mmHg 98%
    06:00 +8°C° 0 mm 2 m/S 740 mmHg 94%
    07:00 +10°C° 0 mm 3 m/S 740 mmHg 91%
    08:00 +11°C° 0 mm 3 m/S 740 mmHg 87%
    09:00 +12°C° 0.5 mm 3 m/S 740 mmHg 84%
    10:00 +13°C° 0.5 mm 3 m/S 740 mmHg 80%
    11:00 +14°C° 0.5 mm 4 m/S 739 mmHg 77%
    12:00 +15°C° 1.1 mm 4 m/S 739 mmHg 77%
    13:00 +15°C° 1.1 mm 4 m/S 739 mmHg 77%
    14:00 +15°C° 1.1 mm 5 m/S 739 mmHg 77%
    15:00 +15°C° 0.7 mm 4 m/S 739 mmHg 78%
    16:00 +15°C° 0.7 mm 4 m/S 739 mmHg 79%
    17:00 +15°C° 0.7 mm 4 m/S 739 mmHg 80%
    18:00 +14°C° 0.3 mm 3 m/S 739 mmHg 83%
    19:00 +13°C° 0.3 mm 3 m/S 739 mmHg 87%
    20:00 +13°C° 0.3 mm 2 m/S 739 mmHg 91%
    21:00 +12°C° 0 mm 2 m/S 739 mmHg 92%
    22:00 +10°C° 0 mm 2 m/S 739 mmHg 93%
    23:00 +9°C° 0 mm 2 m/S 739 mmHg 94%

    übermorgen, 5 Juni, Freitag

    Zeit Temperatur Niederschläge Wind Luftdruck Luftfeuchtigkeit
    00:00 +9°C° 0 mm 2 m/S 739 mmHg 95%
    01:00 +9°C° 0 mm 2 m/S 739 mmHg 95%
    02:00 +9°C° 0 mm 1 m/S 739 mmHg 95%
    03:00 +9°C° 0 mm 1 m/S 739 mmHg 95%
    04:00 +10°C° 0 mm 1 m/S 739 mmHg 95%
    05:00 +10°C° 0 mm 1 m/S 739 mmHg 95%
    06:00 +12°C° 0 mm 2 m/S 739 mmHg 92%
    07:00 +14°C° 0 mm 2 m/S 739 mmHg 88%
    08:00 +16°C° 0 mm 2 m/S 740 mmHg 85%
    09:00 +17°C° 0.2 mm 3 m/S 740 mmHg 82%
    10:00 +19°C° 0.2 mm 4 m/S 740 mmHg 79%
    11:00 +20°C° 0.2 mm 4 m/S 740 mmHg 76%
    12:00 +20°C° 0.6 mm 4 m/S 740 mmHg 80%
    13:00 +19°C° 0.6 mm 4 m/S 740 mmHg 84%
    14:00 +18°C° 0.6 mm 4 m/S 740 mmHg 89%
    15:00 +19°C° 0 mm 4 m/S 740 mmHg 85%
    16:00 +20°C° 0 mm 5 m/S 740 mmHg 81%
    17:00 +21°C° 0 mm 5 m/S 740 mmHg 77%
    18:00 +20°C° 0.1 mm 4 m/S 740 mmHg 80%
    19:00 +19°C° 0.1 mm 4 m/S 740 mmHg 84%
    20:00 +18°C° 0.1 mm 3 m/S 740 mmHg 88%
    21:00 +18°C° 0.1 mm 3 m/S 740 mmHg 90%
    22:00 +17°C° 0.1 mm 3 m/S 741 mmHg 93%
    23:00 +16°C° 0.1 mm 3 m/S 741 mmHg 95%

    6 Juni, Samstag

    Zeit Temperatur Niederschläge Wind Luftdruck Luftfeuchtigkeit
    00:00 +16°C° 0 mm 3 m/S 741 mmHg 95%
    01:00 +16°C° 0 mm 3 m/S 741 mmHg 95%
    02:00 +14°C° 0 mm 3 m/S 741 mmHg 96%
    03:00 +14°C° 0 mm 3 m/S 741 mmHg 95%
    04:00 +16°C° 0 mm 3 m/S 741 mmHg 94%
    05:00 +16°C° 0 mm 3 m/S 741 mmHg 94%
    06:00 +16°C° 0 mm 3 m/S 741 mmHg 92%
    07:00 +15°C° 0 mm 4 m/S 742 mmHg 91%
    08:00 +17°C° 0 mm 4 m/S 742 mmHg 90%
    09:00 +18°C° 0 mm 4 m/S 743 mmHg 87%
    10:00 +18°C° 0 mm 4 m/S 744 mmHg 84%
    11:00 +19°C° 0 mm 4 m/S 744 mmHg 82%
    12:00 +20°C° 0 mm 4 m/S 745 mmHg 76%
    13:00 +21°C° 0 mm 4 m/S 745 mmHg 70%
    14:00 +22°C° 0 mm 3 m/S 745 mmHg 64%
    15:00 +22°C° 0 mm 3 m/S 746 mmHg 64%
    16:00 +22°C° 0 mm 3 m/S 746 mmHg 64%
    17:00 +23°C° 0 mm 2 m/S 746 mmHg 64%
    18:00 +21°C° 0 mm 2 m/S 746 mmHg 71%
    19:00 +20°C° 0 mm 1 m/S 747 mmHg 77%
    20:00 +16°C° 0 mm 0 m/S 747 mmHg 84%
    21:00 +18°C° 0 mm 1 m/S 747 mmHg 85%
    22:00 +16°C° 0 mm 1 m/S 748 mmHg 87%
    23:00 +15°C° 0 mm 1 m/S 748 mmHg 89%

    7 Juni, Sonntag

    Zeit Temperatur Niederschläge Wind Luftdruck Luftfeuchtigkeit
    00:00 +15°C° 0 mm 1 m/S 748 mmHg 90%
    01:00 +14°C° 0 mm 1 m/S 748 mmHg 91%
    02:00 +14°C° 0 mm 1 m/S 749 mmHg 92%
    03:00 +14°C° 0 mm 1 m/S 749 mmHg 92%
    04:00 +15°C° 0 mm 1 m/S 749 mmHg 92%
    05:00 +15°C° 0 mm 2 m/S 749 mmHg 92%
    06:00 +16°C° 0 mm 2 m/S 749 mmHg 87%
    07:00 +18°C° 0 mm 2 m/S 749 mmHg 82%
    08:00 +20°C° 0 mm 3 m/S 750 mmHg 76%
    09:00 +20°C° 0.3 mm 3 m/S 749 mmHg 79%
    10:00 +21°C° 0.3 mm 3 m/S 749 mmHg 81%
    11:00 +21°C° 0.3 mm 4 m/S 749 mmHg 83%
    12:00 +21°C° 0.4 mm 4 m/S 749 mmHg 83%
    13:00 +22°C° 0.4 mm 4 m/S 749 mmHg 84%
    14:00 +22°C° 0.4 mm 4 m/S 748 mmHg 84%
    15:00 +22°C° 1 mm 4 m/S 748 mmHg 86%
    16:00 +21°C° 1 mm 4 m/S 748 mmHg 88%
    17:00 +21°C° 1 mm 4 m/S 748 mmHg 90%
    18:00 +20°C° 0.3 mm 3 m/S 748 mmHg 90%
    19:00 +20°C° 0.3 mm 3 m/S 748 mmHg 90%
    20:00 +19°C° 0.3 mm 3 m/S 748 mmHg 90%
    21:00 +19°C° 0 mm 3 m/S 748 mmHg 90%
    22:00 +18°C° 0 mm 3 m/S 748 mmHg 90%
    23:00 +17°C° 0 mm 3 m/S 748 mmHg 91%

    8 Juni, Montag

    Zeit Temperatur Niederschläge Wind Luftdruck Luftfeuchtigkeit
    00:00 +17°C° 0.1 mm 3 m/S 748 mmHg 91%
    01:00 +17°C° 0.1 mm 4 m/S 747 mmHg 91%
    02:00 +17°C° 0.1 mm 4 m/S 747 mmHg 92%
    03:00 +17°C° 0.6 mm 4 m/S 747 mmHg 92%
    04:00 +17°C° 0.6 mm 4 m/S 747 mmHg 91%
    05:00 +17°C° 0.6 mm 4 m/S 747 mmHg 91%
    06:00 +19°C° 0.1 mm 4 m/S 746 mmHg 90%
    07:00 +20°C° 0.1 mm 4 m/S 746 mmHg 89%
    08:00 +21°C° 0.1 mm 4 m/S 746 mmHg 87%
    09:00 +22°C° 0.1 mm 4 m/S 746 mmHg 82%
    10:00 +25°C° 0.1 mm 4 m/S 746 mmHg 76%
    11:00 +26°C° 0.1 mm 4 m/S 746 mmHg 70%
    12:00 +26°C° 0.8 mm 4 m/S 746 mmHg 70%
    13:00 +26°C° 0.8 mm 4 m/S 746 mmHg 70%
    14:00 +27°C° 0.8 mm 4 m/S 746 mmHg 69%
    15:00 +26°C° 0.9 mm 3 m/S 746 mmHg 72%
    16:00 +26°C° 0.9 mm 3 m/S 746 mmHg 74%
    17:00 +26°C° 0.9 mm 3 m/S 746 mmHg 76%
    18:00 +25°C° 0.4 mm 3 m/S 746 mmHg 80%
    19:00 +23°C° 0.4 mm 2 m/S 746 mmHg 84%
    20:00 +21°C° 0.4 mm 2 m/S 746 mmHg 89%
    21:00 +20°C° 0.1 mm 2 m/S 746 mmHg 91%
    22:00 +19°C° 0.1 mm 2 m/S 747 mmHg 93%
    23:00 +19°C° 0.1 mm 2 m/S 747 mmHg 95%
    Mehr zeigen